Location: Bidart
(43.4376°N, 1.5913°W)
Time: 16:24:22
(UTC+00:00)

Cosmos 220 Rocket - Pass Details

Date: 19 May 2025
Orbit: 547 x 580 km, 74.0° (Epoch: 12 June)

Event Time Altitude Azimuth Distance (km) Brightness Sun altitude
Exits shadow 21:57:21 62° 149° (SSE) 626 3.7 -20.3°
Maximum altitude 21:57:47 68° 108° (ESE) 597 3.7 -20.4°
Drops below altitude 10° 22:01:49 10° 25° (NNE) 1,830 6.9 -20.8°
Sets 22:04:01 0° 23° (NNE) 2,726 7.9 -21.0°
